Flag for Kazakhstan Weather past 2 weeks in Almaty, Kazakhstan

Now
70 °F

Clear.


Feels Like: 70 °F
Forecast: 60 / 91 °F
Wind: 3 mph from Southeast

Location: Almaty Airport

Current Time: Aug 30, 2014 at 9:02:59 PM

Latest Report: Aug 30, 2014 at 8:30 PM


Visibility: N/A

Pressure: 29.95 "Hg

Humidity: 27%

Dew point: 34 °F

Location of AlmatyLocation

Historic Weather in Almaty — Graph

°F

Almaty temperature yesterday

Maximum temperature yesterday: 86 °F (at 4:30 PM)
Minimum temperature yesterday: 52 °F (at 6:00 AM)
Average temperature yesterday: 69 °F

Past Weeks' High & Low Weather Summary

 TemperatureHumidityPressure
High99 °F (Aug 25, 1:00 PM)88% (Aug 16, 4:00 AM)30.15 "Hg (Aug 16, 4:00 AM)
Low50 °F (Aug 20, 6:00 AM)7% (Aug 23, 4:30 PM)29.71 "Hg (Aug 25, 3:00 PM)
Average72 °F38%29.94 "Hg
* Reported Aug 15 8:30 PM — Aug 30 8:00 PM, Almaty, Weather by CustomWeather, © 2014

Note: Actual official high and low records may vary slightly from our data, if they occured in-between our weather recording intervals... More about our weather records

Advertising

Almaty weather history for previous 24 hours

 ConditionsComfort  
Time TempWeatherWind HumidityBarometerVisibility
8:00 PM
Aug 30
72 °FClear.6 mph27%29.95 "Hg3 mi
7:30 PM77 °FClear.3 mph19%29.95 "Hg3 mi
7:00 PM81 °FClear.3 mph14%29.95 "HgN/A
6:30 PM82 °FClear.6 mph10%29.95 "HgN/A
6:00 PM84 °FClear.6 mph9%29.95 "HgN/A
5:30 PM86 °FClear.6 mph8%29.95 "HgN/A
5:00 PM86 °FClear.6 mph7%29.95 "HgN/A
4:30 PM86 °FClear.8 mph8%29.95 "HgN/A
4:00 PM86 °FClear.6 mph8%29.95 "HgN/A
3:30 PM86 °FClear.6 mph8%29.95 "HgN/A
3:00 PM84 °FClear.8 mph9%29.95 "HgN/A
2:30 PM84 °FClear.8 mph10%29.98 "HgN/A
2:00 PM84 °FClear.6 mph8%29.98 "HgN/A
1:30 PM82 °FPassing clouds.6 mph9%30.01 "HgN/A
1:00 PM82 °FPassing clouds.6 mph9%30.01 "HgN/A
12:30 PM82 °FPassing clouds.6 mph8%30.01 "HgN/A
12:00 PM81 °FPassing clouds.8 mph8%30.01 "HgN/A
11:30 AM81 °FClear.6 mph9%30.01 "HgN/A
11:00 AM77 °FClear.3 mph11%30.04 "HgN/A
10:30 AM75 °FClear.3 mph11%30.04 "HgN/A
10:00 AM73 °FClear.3 mph15%30.04 "HgN/A
9:30 AM72 °FClear.3 mph23%30.04 "HgN/A
8:30 AM68 °FClear.3 mph26%30.04 "HgN/A
8:00 AM64 °FClear.3 mph30%30.04 "HgN/A
7:30 AM59 °FClear.1 mph39%30.04 "HgN/A
7:00 AM54 °FClear.3 mph44%30.04 "HgN/A
6:30 AM52 °FClear.3 mph44%30.04 "HgN/A
6:00 AM52 °FClear.3 mph47%30.04 "HgN/A
5:30 AM52 °FClear.No wind44%30.04 "HgN/A
5:00 AM52 °FClear.3 mph44%30.01 "HgN/A
4:30 AM52 °FClear.3 mph47%30.01 "HgN/A
4:00 AM54 °FClear.3 mph41%30.01 "HgN/A
3:30 AM54 °FClear.3 mph41%30.01 "HgN/A
3:00 AM54 °FClear.3 mph44%30.01 "HgN/A
1:00 AM57 °FClear.3 mph36%30.04 "HgN/A
12:30 AM55 °FClear.3 mph38%30.04 "HgN/A
12:00 AM57 °FClear.3 mph36%30.04 "HgN/A
11:30 PM
Aug 29
59 °FClear.3 mph34%30.04 "HgN/A
11:00 PM59 °FClear.3 mph34%30.04 "HgN/A
10:30 PM63 °FClear.1 mph30%30.04 "HgN/A
10:00 PM64 °FClear.3 mph26%30.04 "HgN/A
9:30 PM64 °FPassing clouds.3 mph28%30.04 "HgN/A
9:00 PM66 °FPassing clouds.3 mph28%30.04 "Hg3 mi
Weather by CustomWeather, © 2014

See weather overviewHow to use our weather pages